Back to catalog

SL-12 R/B(2)

LostMEO
NORAD 21221·ROCKET BODY·🇷🇺 Russia

Launched Apr 4, 1991 from Baikonur Cosmodrome

Loading…

Next Passes (next 24 hours)

TLE

StaleSource: Space-Track

Epoch: Aug 6, 2026, 12:53 UTC

1 21221U 91025E   26218.53728956 -.00000037  00000-0  00000+0 0  9999
2 21221  64.3099 302.2253 0016228 213.6949 111.7177  2.13167751275104

Track SL-12 R/B(2) in real time with AllMySat

Download on the App Store